[[{"header":{"parameterUnit":"m.s-1","parameterCategory":1,"la1":30.2991,"la2":30.254,"lo1":-89.0895,"lo2":-89.0444,"dy":0.0017,"dx":0.0017,"nx":28,"ny":28,"refTime":"2023-09-25T03:00:00:Z","depth":0,"parameterNumber":2,"parameterNumberName":"U-component_of_WINDS"},"data":[0,0,0,0,0,0,0,0,0,0,0,0,0,0,0,0,0,0,0,0,0,0,0,0,0,0,0,0,0,0,0,0,0,0,0,0,0,0,0,0,0,0,0,0,0,0,0,0,0,0,0,0,0,0,0,0,0,0,1.5416,1.5416,0,1.5459,1.5459,1.546,1.545,1.545,1.5449,1.5448,1.5489,1.549,1.5492,0,0,0,0,0,0,0,0,0,0,0,0,0,1.5321,1.5323,1.5415,1.5416,1.5417,1.5459,1.5459,1.546,1.5451,1.545,1.5449,1.5448,1.5488,1.549,1.5492,0,0,0,0,0,0,0,0,0,0,0,0,0,1.5363,1.5323,1.5415,1.5417,1.5418,1.5458,1.5459,1.546,1.5451,1.545,1.5448,1.5447,1.5487,1.549,1.5493,1.5533,0,0,1.5501,1.5502,0,0,0,0,0,0,0,0,1.536,1.5366,1.5416,1.5417,1.5418,1.5448,1.5441,1.5484,1.5451,1.5438,1.5448,1.5447,1.5476,1.5479,1.549,1.5535,1.5537,1.5501,1.5503,1.5504,1.5505,0,0,0,0,0,0,0,1.5357,1.5364,1.5432,1.5417,1.5418,1.5414,1.5419,1.5449,1.5463,1.5439,1.5439,1.5444,1.5476,1.5487,1.5491,1.5537,1.5501,1.5503,1.5505,1.5506,1.5615,1.5616,0,0,0,0,0,0,1.5354,1.5362,1.5431,1.5434,1.5386,1.5417,1.5422,1.5439,1.5463,1.5465,1.5445,1.5444,1.5483,1.5488,1.5492,1.5539,1.5504,1.5506,1.5508,1.5614,1.5615,1.5617,0,0,0,0,0,0,1.5352,1.5361,1.5429,1.5398,1.5406,1.542,1.5439,1.5441,1.5452,1.5467,1.5469,1.5454,1.5483,1.5488,1.5523,1.554,1.5508,1.551,1.5612,1.5614,1.5616,1.5634,0,0,0,0,0,0,1.535,1.536,1.5377,1.5398,1.5408,1.546,1.5441,1.5443,1.5457,1.5456,1.5476,1.5479,1.5482,1.5519,1.5525,1.5544,1.5512,1.5611,1.5613,1.5615,1.5632,1.5637,1.564,0,0,0,0,0,1.5346,1.538,1.5378,1.5386,1.5429,1.5461,1.5467,1.5471,1.5459,1.5475,1.5484,1.5478,1.5538,1.5522,1.553,1.5549,1.5609,1.5612,1.5615,1.563,1.5636,1.564,0,0,0,0,0,0,1.5359,1.5383,1.538,1.5422,1.544,1.546,1.548,1.5477,1.5498,1.5495,1.5499,1.5503,1.5538,1.5547,1.5529,1.5588,1.5572,1.5576,1.5581,1.5586,1.559,1.5586,1.5515,0,0,0,0,0,1.5367,1.5392,1.5411,1.5446,1.5455,1.5466,1.548,1.5482,1.55,1.5507,1.5519,1.5536,1.5558,1.5573,1.5595,1.5634,1.5637,1.5651,1.5655,1.5658,1.5661,1.5681,1.5686,1.5626,1.5626,1.5626,0,0,1.5382,1.5399,1.5414,1.5449,1.5463,1.5487,1.5472,1.55,1.5517,1.5511,1.5544,1.5553,1.5572,1.5609,1.5625,1.5617,1.5679,1.5662,1.5665,1.5666,1.5684,1.569,1.5695,1.5628,1.5627,1.5627,0,0,1.5423,1.5439,1.5469,1.5484,1.5505,1.5512,1.552,1.554,1.5546,1.558,1.5575,1.5596,1.5635,1.5648,1.5659,1.5705,1.5699,1.5712,1.5732,1.5751,1.5756,1.576,1.5774,1.5779,1.5715,1.5715,1.5715,0,1.544,1.5478,1.5484,1.5512,1.5526,1.5523,1.5552,1.5565,1.5592,1.5602,1.5593,1.5641,1.5654,1.5692,1.5703,1.5713,1.572,1.5708,1.5755,1.5759,1.5763,1.5777,1.5782,1.5716,1.5716,1.5716,1.5716,0,1.5496,1.5523,1.5544,1.5571,1.5588,1.5616,1.5625,1.5641,1.5641,1.5649,1.5681,1.5697,1.572,1.573,1.5731,1.5768,1.5762,1.5755,1.5737,1.577,1.5783,1.5788,1.5718,1.5718,1.5717,1.5717,0,0,1.5545,1.5575,1.5583,1.5594,1.5618,1.5638,1.5665,1.5689,1.5702,1.5721,1.5742,1.5775,1.5768,1.5781,1.5783,1.58,1.5832,1.579,1.579,1.5795,1.5872,1.5876,1.5882,1.5829,1.583,1.5831,1.5869,0,1.5586,1.5635,1.5641,1.5684,1.5707,1.5705,1.5728,1.5744,1.5752,1.5772,1.578,1.5802,1.5792,1.58,1.5816,1.5825,1.5847,1.5822,1.5847,1.5848,1.584,1.5889,1.5893,1.5929,1.5874,1.5875,1.5876,0,1.5641,1.5662,1.5707,1.5726,1.5736,1.5758,1.5779,1.5799,1.5817,1.5821,1.5836,1.5835,1.5861,1.5845,1.588,1.5863,1.5873,1.5879,1.588,1.5881,1.5862,1.5888,1.594,1.5945,1.5884,1.5883,1.5883,0,1.5669,1.5709,1.574,1.5751,1.5775,1.5789,1.5799,1.5816,1.583,1.5849,1.5857,1.5879,1.589,1.5906,1.591,1.5899,1.5944,1.5929,1.5947,1.5946,1.5955,1.5954,1.6007,1.5965,1.5965,1.5965,1.5965,0,1.5713,1.574,1.5753,1.5773,1.5802,1.5809,1.5838,1.5847,1.5862,1.5882,1.5881,1.5899,1.5905,1.5924,1.5928,1.5955,1.5961,1.5963,1.5963,1.5962,1.5961,1.5967,1.5964,1.5966,1.5966,1.5966,1.5966,0,1.5749,1.5759,1.5793,1.5813,1.5819,1.5839,1.5856,1.5873,1.5881,1.5906,1.5912,1.5924,1.5946,1.5953,1.5979,1.5982,1.6012,1.6012,1.6007,1.6006,1.6022,1.602,1.6079,1.6087,1.6042,1.6043,1.6043,0,1.5775,1.5796,1.5819,1.5832,1.5843,1.5866,1.588,1.5886,1.5901,1.5922,1.5937,1.5959,1.5977,1.6012,1.6021,1.6041,1.604,1.6059,1.6042,1.604,1.6037,1.6035,1.6036,1.6061,1.6062,1.6062,1.6063,0,1.582,1.5824,1.5845,1.5868,1.5885,1.5903,1.592,1.5931,1.594,1.5955,1.5979,1.5993,1.602,1.6041,1.6061,1.607,1.6067,1.6068,1.6073,1.607,1.6066,1.6066,1.6013,1.6066,1.6066,1.6066,1.6065,1.6065,1.5851,1.5869,1.5887,1.591,1.5924,1.5939,1.5957,1.5967,1.5986,1.601,1.6012,1.6036,1.6052,1.6079,1.6089,1.6107,1.6101,1.6109,1.611,1.6111,1.6111,1.6065,1.6111,1.6111,1.6111,1.6111,1.6111,0,1.5894,1.5906,1.5927,1.5951,1.5969,1.5966,1.5985,1.5999,1.6021,1.6036,1.6054,1.608,1.61,1.6112,1.6132,1.6144,1.6143,1.6148,1.6146,1.6148,1.6117,1.611,1.6149,1.6149,1.6149,1.6149,1.6149,1.6149,1.5918,1.5948,1.5954,1.5989,1.6,1.6025,1.6035,1.6049,1.6062,1.609,1.6108,1.6116,1.6129,1.615,1.6168,1.6171,1.6177,1.6183,1.6185,1.6155,1.6151,1.6147,1.614,1.6185,1.6185,1.6214,1.6215,1.6215]},{"header":{"parameterUnit":"m.s-1","parameterCategory":1,"la1":30.2991,"la2":30.254,"lo1":-89.0895,"lo2":-89.0444,"dy":0.0017,"dx":0.0017,"nx":28,"ny":28,"refTime":"2023-09-25T03:00:00:Z","depth":0,"parameterNumber":3,"parameterNumberName":"V-component_of_WINDS"},"data":[0,0,0,0,0,0,0,0,0,0,0,0,0,0,0,0,0,0,0,0,0,0,0,0,0,0,0,0,0,0,0,0,0,0,0,0,0,0,0,0,0,0,0,0,0,0,0,0,0,0,0,0,0,0,0,0,0,0,1.6927,1.6928,0,1.7026,1.7027,1.7028,1.7037,1.7036,1.7035,1.7034,1.7132,1.7135,1.7139,0,0,0,0,0,0,0,0,0,0,0,0,0,1.6742,1.6746,1.6927,1.6928,1.6929,1.7025,1.7027,1.7028,1.7037,1.7036,1.7035,1.7033,1.7131,1.7135,1.7139,0,0,0,0,0,0,0,0,0,0,0,0,0,1.683,1.6747,1.6927,1.6946,1.6948,1.7025,1.7027,1.7028,1.7037,1.7036,1.7034,1.7033,1.7129,1.7134,1.714,1.7204,0,0,1.7156,1.7158,0,0,0,0,0,0,0,0,1.6825,1.6836,1.6942,1.6944,1.6947,1.7017,1.6998,1.7087,1.7038,1.7003,1.7034,1.7032,1.7095,1.7103,1.7125,1.7208,1.7212,1.7156,1.716,1.7162,1.7164,0,0,0,0,0,0,0,1.6819,1.6832,1.6966,1.6943,1.6947,1.6948,1.6958,1.7015,1.7056,1.7006,1.7007,1.7019,1.7096,1.7119,1.7127,1.7214,1.7156,1.7161,1.7164,1.7166,1.7353,1.7354,0,0,0,0,0,0,1.681,1.6827,1.6963,1.6969,1.6881,1.6952,1.6964,1.6996,1.7056,1.7064,1.702,1.7019,1.7111,1.7121,1.713,1.7208,1.7162,1.7167,1.717,1.7351,1.7353,1.7355,0,0,0,0,0,0,1.6806,1.6822,1.6959,1.6898,1.6916,1.6957,1.6993,1.6999,1.7023,1.7066,1.7074,1.7037,1.711,1.7123,1.7185,1.7212,1.7169,1.7174,1.7349,1.7352,1.7354,1.7365,0,0,0,0,0,0,1.68,1.682,1.6846,1.6899,1.6919,1.7013,1.6995,1.7002,1.7032,1.7032,1.7084,1.7091,1.711,1.7177,1.719,1.7218,1.7178,1.7347,1.735,1.7353,1.7362,1.7368,1.7372,0,0,0,0,0,1.6794,1.6845,1.6847,1.6864,1.6953,1.7015,1.7026,1.7048,1.7034,1.706,1.7088,1.7089,1.7207,1.7183,1.7199,1.7228,1.7345,1.7349,1.7353,1.736,1.7367,1.7372,0,0,0,0,0,0,1.6794,1.6852,1.6856,1.6926,1.6965,1.7016,1.7049,1.7054,1.7098,1.7095,1.712,1.7131,1.7192,1.7217,1.719,1.7292,1.7274,1.7281,1.7275,1.7281,1.7286,1.7279,1.7183,0,0,0,0,0,1.6802,1.6849,1.6897,1.6954,1.6974,1.7008,1.7036,1.7049,1.7091,1.7107,1.714,1.7179,1.7224,1.7254,1.7299,1.7366,1.7376,1.7394,1.7398,1.7402,1.7408,1.7443,1.7451,1.7368,1.7368,1.7368,0,0,1.6819,1.6857,1.6885,1.6955,1.6987,1.7034,1.7022,1.7072,1.7107,1.7115,1.7176,1.72,1.7245,1.731,1.734,1.7332,1.7433,1.7407,1.741,1.7414,1.7448,1.7456,1.7463,1.737,1.737,1.737,0,0,1.6875,1.6909,1.6959,1.6992,1.7041,1.7063,1.7075,1.7125,1.7142,1.7204,1.721,1.725,1.7329,1.736,1.7387,1.7452,1.7454,1.7465,1.7491,1.7525,1.7532,1.7537,1.756,1.7567,1.7471,1.7471,1.7471,0,1.689,1.6962,1.6985,1.7035,1.7064,1.7074,1.7125,1.7154,1.7215,1.7235,1.7225,1.7323,1.7354,1.7425,1.7441,1.7462,1.7475,1.746,1.7529,1.7535,1.7541,1.7562,1.7571,1.7472,1.7472,1.7472,1.7472,0,1.6977,1.7027,1.7062,1.712,1.7154,1.7204,1.7233,1.7264,1.7273,1.7296,1.7357,1.7395,1.7446,1.7464,1.7474,1.7536,1.753,1.7524,1.7506,1.755,1.757,1.7578,1.7473,1.7473,1.7473,1.7473,0,0,1.7037,1.7107,1.7119,1.7145,1.7199,1.7237,1.7286,1.7337,1.7363,1.7403,1.7444,1.751,1.7505,1.7534,1.7547,1.7578,1.7625,1.7568,1.757,1.7577,1.7694,1.7698,1.7707,1.7627,1.7629,1.763,1.769,0,1.7098,1.7188,1.7209,1.7285,1.733,1.7338,1.7381,1.7418,1.744,1.748,1.7503,1.7549,1.7539,1.7557,1.7587,1.7613,1.7649,1.7609,1.7664,1.7666,1.7652,1.7718,1.7722,1.7777,1.7698,1.77,1.7701,0,1.7182,1.7225,1.7305,1.7352,1.7372,1.741,1.7457,1.7496,1.7537,1.755,1.7583,1.7593,1.7642,1.7622,1.7689,1.7662,1.7685,1.7701,1.7703,1.7709,1.7686,1.7725,1.7796,1.7804,1.7714,1.7713,1.7712,0,1.7216,1.7294,1.7352,1.7374,1.743,1.7456,1.748,1.752,1.7549,1.759,1.7608,1.7654,1.7679,1.7713,1.7734,1.7718,1.78,1.7781,1.7811,1.7811,1.7828,1.7827,1.7903,1.7844,1.7844,1.7844,1.7844,0,1.7282,1.7331,1.7368,1.7404,1.7458,1.748,1.7533,1.7557,1.7592,1.7631,1.7641,1.7677,1.7703,1.7742,1.7759,1.7811,1.7823,1.7834,1.7838,1.7833,1.7831,1.7848,1.7845,1.7846,1.7845,1.7845,1.7845,0,1.7329,1.7357,1.742,1.7468,1.7481,1.7518,1.7558,1.7592,1.7613,1.7663,1.7675,1.7709,1.7755,1.778,1.7838,1.7849,1.7908,1.7909,1.7894,1.7896,1.7924,1.7921,1.8014,1.8026,1.7959,1.796,1.796,0,1.737,1.7408,1.7459,1.7486,1.7511,1.7555,1.7584,1.7607,1.7637,1.7685,1.7713,1.776,1.7799,1.7873,1.7901,1.7945,1.7947,1.7977,1.7954,1.7947,1.7947,1.7944,1.7947,1.7981,1.7982,1.7982,1.7982,0,1.7438,1.7449,1.7492,1.7538,1.7573,1.7611,1.7648,1.7669,1.7698,1.773,1.7778,1.7809,1.7868,1.7914,1.7959,1.7983,1.7987,1.7989,1.7998,1.7994,1.7983,1.7988,1.7905,1.7987,1.7987,1.7986,1.7986,1.7986,1.7483,1.7516,1.7557,1.7603,1.7634,1.7668,1.7701,1.7727,1.7768,1.7818,1.7829,1.7879,1.7917,1.7979,1.8003,1.8042,1.8035,1.8049,1.8052,1.8055,1.8056,1.7977,1.805,1.805,1.805,1.805,1.805,0,1.7551,1.7577,1.762,1.7671,1.7707,1.7709,1.7749,1.7779,1.7823,1.7859,1.7897,1.7951,1.7995,1.8026,1.8071,1.8095,1.8098,1.8106,1.8105,1.8109,1.8059,1.8047,1.8103,1.8103,1.8103,1.8103,1.8103,1.8103,1.759,1.7646,1.7662,1.7732,1.7758,1.7808,1.7831,1.7862,1.789,1.795,1.7987,1.8008,1.8041,1.8088,1.8128,1.8135,1.8151,1.8159,1.8166,1.8119,1.8113,1.8108,1.8096,1.8162,1.8162,1.8214,1.8214,1.8214]}]]